Location: Aulagny
(45.1643°N, 4.3096°E)
Time: 05:36:51
(UTC+00:00)

STARLINK-29 - Pass Details

Date: 21 October 2019
Orbit: 438 x 449 km, 53.0° (Epoch: 17 November)

Event Time Altitude Azimuth Distance (km) Brightness Sun altitude
Rises 18:58:40 0° 299° (WNW) 2,435 8.1 -23.7°
Reaches altitude 10° 19:00:50 10° 294° (WNW) 1,564 6.9 -24.0°
Enters shadow 19:03:33 40° 255° (WSW) 664 4.4 -24.5°
